Preview of NWS' New Version of Forecast
This preview is not operational and should not be used for support decisions.

Regional Weather Roundup (RWR)

Issued by National Weather Service (NWS)

                            
000
ASCA42 TJSJ 260910
RWRPR 
PUERTO RICO/U.S. VIRGIN ISLANDS HOURLY WEATHER ROUNDUP
NATIONAL WEATHER SERVICE SAN JUAN PR
500 AM AST SUN MAY 26 2019

PRZ001>002-007>008-010-261000-
PUERTO RICO
  
CITY           SKY/WX    TMP DP  RH WIND       PRES   REMARKS
SAN JUAN LMM   PTCLDY    79  72  78 CALM      29.96S                  
CEIBA          PTCLDY    77  72  83 N3        29.97R                  
$$

VIZ001>002-261000-
U.S. VIRGIN ISLANDS
  
CITY           SKY/WX    TMP DP  RH WIND       PRES   REMARKS
CHARLOTTE AMA  CLEAR     79  72  78 E6        29.95R                  
CHRISTIANSTED  PTCLDY    75  73  94 E6        29.95S                  
$$

HOURLY WEATHER ROUNDUP FOR THE NEWS MEDIA
  
CITY           SKY/WX    TMP DP  RH WIND       PRES   REMARKS
ORLANDO        FAIR      73  70  90 CALM      30.11S                  
NEW YORK       CLOUDY    60  58  92 SW9       29.96                   
NEWARK         FAIR      62  56  80 W10       29.95R                  
CHICAGO        MOCLDY    69  60  73 SW8       29.96R                  
HARTFORD       CLOUDY    57  53  86 SW13      29.94F                  
BOSTON         CLOUDY    58  52  80 SW14      29.90F                  
DALLAS         CLOUDY    77  67  71 S10       30.01S                  
PHILADELPHIA   CLOUDY    64  62  93 SW6       29.98S                  
LOS ANGELES    CLOUDY    59  52  77 VRB5      29.87F                  
WASHINGTON DC  FAIR      66  64  93 CALM      30.01S